[[{"header":{"parameterUnit":"m.s-1","parameterCategory":1,"la1":30.2991,"la2":30.254,"lo1":-89.0895,"lo2":-89.0444,"dy":0.0017,"dx":0.0017,"nx":28,"ny":28,"refTime":"2023-10-24T03:00:00:Z","depth":0,"parameterNumber":2,"parameterNumberName":"U-component_of_WINDS"},"data":[0,0,0,0,0,0,0,0,0,0,0,0,0,0,0,0,0,0,0,0,0,0,0,0,0,0,0,0,0,0,0,0,0,0,0,0,0,0,0,0,0,0,0,0,0,0,0,0,0,0,0,0,0,0,0,0,0,0,-7.3377,-7.3379,0,-7.3517,-7.3519,-7.352,-7.3486,-7.3483,-7.3481,-7.3478,-7.3615,-7.3621,-7.3627,0,0,0,0,0,0,0,0,0,0,0,0,0,-7.3077,-7.3082,-7.3377,-7.3379,-7.3381,-7.3517,-7.3519,-7.3521,-7.3487,-7.3483,-7.348,-7.3477,-7.3613,-7.3621,-7.3628,0,0,0,0,0,0,0,0,0,0,0,0,0,-7.3211,-7.3084,-7.3377,-7.338,-7.3382,-7.3516,-7.3519,-7.3521,-7.3487,-7.3483,-7.3479,-7.3475,-7.3611,-7.362,-7.3629,-7.3767,0,0,-7.3657,-7.3661,0,0,0,0,0,0,0,0,-7.3203,-7.3222,-7.3378,-7.338,-7.3382,-7.348,-7.3463,-7.3603,-7.3488,-7.3447,-7.3478,-7.3473,-7.3573,-7.3585,-7.362,-7.3773,-7.3779,-7.3658,-7.3664,-7.3668,-7.367,0,0,0,0,0,0,0,-7.3194,-7.3216,-7.3432,-7.338,-7.3383,-7.3373,-7.3388,-7.3489,-7.3531,-7.345,-7.3448,-7.3466,-7.3574,-7.3611,-7.3623,-7.3781,-7.3658,-7.3666,-7.3672,-7.3675,-7.4056,-7.406,0,0,0,0,0,0,-7.3184,-7.3208,-7.3428,-7.3436,-7.3281,-7.3382,-7.3398,-7.3453,-7.353,-7.3538,-7.3469,-7.3463,-7.3598,-7.3612,-7.3628,-7.3794,-7.3668,-7.3676,-7.3682,-7.4051,-7.4057,-7.4062,0,0,0,0,0,0,-7.3177,-7.3203,-7.3422,-7.3322,-7.3349,-7.3392,-7.3453,-7.3458,-7.3495,-7.3544,-7.355,-7.35,-7.3595,-7.3615,-7.3733,-7.3798,-7.368,-7.3689,-7.4046,-7.4053,-7.4059,-7.4128,0,0,0,0,0,0,-7.3169,-7.3201,-7.3255,-7.3323,-7.3355,-7.3526,-7.3457,-7.3463,-7.3512,-7.3506,-7.3575,-7.3582,-7.3593,-7.372,-7.3742,-7.3809,-7.3696,-7.404,-7.4049,-7.4057,-7.412,-7.4136,-7.415,0,0,0,0,0,-7.3158,-7.3266,-7.3257,-7.3284,-7.3422,-7.353,-7.3547,-7.356,-7.3517,-7.3571,-7.3603,-7.358,-7.3789,-7.3732,-7.3757,-7.3828,-7.4036,-7.4047,-7.4057,-7.4113,-7.4133,-7.415,0,0,0,0,0,0,-7.32,-7.3275,-7.3266,-7.34,-7.346,-7.3524,-7.3591,-7.358,-7.3651,-7.3642,-7.3653,-7.3669,-7.379,-7.3821,-7.3757,-7.3966,-7.3906,-7.3922,-7.394,-7.396,-7.3974,-7.3962,-7.3704,0,0,0,0,0,-7.3227,-7.3309,-7.337,-7.3482,-7.3513,-7.3548,-7.3595,-7.36,-7.366,-7.3684,-7.3725,-7.3783,-7.3862,-7.3913,-7.3988,-7.4126,-7.414,-7.4187,-7.4202,-7.4215,-7.4227,-7.4302,-7.4324,-7.4096,-7.4096,-7.4095,0,0,-7.3278,-7.333,-7.3381,-7.3492,-7.3538,-7.3623,-7.3568,-7.3659,-7.3721,-7.3697,-7.3812,-7.3844,-7.391,-7.4039,-7.4098,-7.4069,-7.4294,-7.4228,-7.4237,-7.4242,-7.4315,-7.4336,-7.4356,-7.4103,-7.4101,-7.41,0,0,-7.3416,-7.3465,-7.3564,-7.3613,-7.3685,-7.3708,-7.3733,-7.3801,-7.3822,-7.3938,-7.3922,-7.3996,-7.4132,-7.418,-7.4222,-7.4384,-7.4366,-7.4409,-7.4486,-7.4559,-7.4577,-7.4593,-7.4649,-7.467,-7.4422,-7.4422,-7.4422,0,-7.3471,-7.3599,-7.3615,-7.3709,-7.3758,-7.3745,-7.3845,-7.3892,-7.3984,-7.4018,-7.3985,-7.4157,-7.4201,-7.4341,-7.4381,-7.4416,-7.4443,-7.4398,-7.4574,-7.459,-7.4605,-7.4659,-7.468,-7.4426,-7.4426,-7.4425,-7.4425,0,-7.3662,-7.3752,-7.3823,-7.3916,-7.3974,-7.407,-7.4101,-7.4157,-7.4159,-7.4186,-7.4305,-7.4358,-7.4444,-7.4479,-7.448,-7.462,-7.46,-7.4571,-7.451,-7.4631,-7.4681,-7.4702,-7.4433,-7.4431,-7.443,-7.4429,0,0,-7.3824,-7.393,-7.3955,-7.3998,-7.408,-7.4148,-7.4245,-7.4332,-7.438,-7.4446,-7.4526,-7.4644,-7.4619,-7.4667,-7.4674,-7.474,-7.4864,-7.4703,-7.4704,-7.4729,-7.502,-7.5039,-7.5062,-7.4855,-7.4859,-7.4862,-7.5014,0,-7.3967,-7.4139,-7.4159,-7.4311,-7.4394,-7.4386,-7.447,-7.4529,-7.4558,-7.4631,-7.4663,-7.4746,-7.4707,-7.4736,-7.4801,-7.4835,-7.4922,-7.4825,-7.4926,-7.493,-7.4906,-7.5089,-7.5108,-7.5248,-7.5034,-7.5037,-7.504,0,-7.4155,-7.423,-7.4391,-7.4464,-7.45,-7.4575,-7.4658,-7.4729,-7.4796,-7.4813,-7.487,-7.487,-7.4969,-7.4909,-7.5045,-7.4979,-7.5023,-7.5047,-7.5052,-7.5059,-7.4989,-7.5097,-7.5294,-7.5314,-7.5071,-7.5069,-7.5067,0,-7.4255,-7.4396,-7.4511,-7.4548,-7.4636,-7.469,-7.4729,-7.4793,-7.4845,-7.4917,-7.4951,-7.5034,-7.5078,-7.5142,-7.5164,-7.5119,-7.53,-7.5241,-7.5314,-7.5314,-7.5348,-7.5345,-7.5551,-7.5383,-7.5383,-7.5383,-7.5382,0,-7.441,-7.4508,-7.4557,-7.4627,-7.4738,-7.4761,-7.4869,-7.4906,-7.4964,-7.504,-7.5039,-7.5111,-7.5138,-7.5214,-7.5233,-7.5343,-7.5363,-7.5378,-7.5381,-7.5376,-7.5374,-7.5401,-7.5391,-7.5388,-7.5387,-7.5386,-7.5385,0,-7.4536,-7.4574,-7.4698,-7.4774,-7.4796,-7.4873,-7.4937,-7.5005,-7.5036,-7.5133,-7.5157,-7.5204,-7.5294,-7.5325,-7.5433,-7.5446,-7.5573,-7.5569,-7.555,-7.555,-7.562,-7.5612,-7.5848,-7.588,-7.5694,-7.5696,-7.5698,0,-7.463,-7.4707,-7.4792,-7.4845,-7.4887,-7.4971,-7.5026,-7.5053,-7.511,-7.5195,-7.5252,-7.5343,-7.5415,-7.556,-7.5603,-7.5686,-7.5682,-7.576,-7.5694,-7.5688,-7.568,-7.5674,-7.5681,-7.577,-7.5772,-7.5774,-7.5775,0,-7.4793,-7.4809,-7.4889,-7.4976,-7.5042,-7.5111,-7.5178,-7.5221,-7.5259,-7.5323,-7.5416,-7.5474,-7.5587,-7.5676,-7.5762,-7.5801,-7.5794,-7.5797,-7.5817,-7.581,-7.5795,-7.5802,-7.558,-7.5789,-7.5788,-7.5787,-7.5786,-7.5785,-7.4904,-7.4972,-7.5044,-7.5133,-7.5188,-7.5252,-7.5319,-7.5361,-7.544,-7.5535,-7.5548,-7.5648,-7.5716,-7.5832,-7.5876,-7.5954,-7.5932,-7.5963,-7.597,-7.5976,-7.598,-7.5787,-7.5971,-7.597,-7.597,-7.597,-7.5969,0,-7.5064,-7.5112,-7.5194,-7.529,-7.5361,-7.5354,-7.5428,-7.5487,-7.5576,-7.5642,-7.5716,-7.5824,-7.5912,-7.5965,-7.6052,-7.6105,-7.6104,-7.6127,-7.6121,-7.613,-7.5996,-7.5968,-7.6126,-7.6126,-7.6126,-7.6126,-7.6126,-7.6126,-7.5155,-7.5269,-7.5295,-7.5437,-7.5483,-7.5583,-7.5627,-7.5686,-7.5738,-7.586,-7.5935,-7.597,-7.603,-7.6124,-7.6204,-7.6217,-7.6248,-7.6272,-7.6283,-7.6156,-7.6139,-7.6123,-7.6097,-7.628,-7.628,-7.641,-7.6411,-7.6412]},{"header":{"parameterUnit":"m.s-1","parameterCategory":1,"la1":30.2991,"la2":30.254,"lo1":-89.0895,"lo2":-89.0444,"dy":0.0017,"dx":0.0017,"nx":28,"ny":28,"refTime":"2023-10-24T03:00:00:Z","depth":0,"parameterNumber":3,"parameterNumberName":"V-component_of_WINDS"},"data":[0,0,0,0,0,0,0,0,0,0,0,0,0,0,0,0,0,0,0,0,0,0,0,0,0,0,0,0,0,0,0,0,0,0,0,0,0,0,0,0,0,0,0,0,0,0,0,0,0,0,0,0,0,0,0,0,0,0,1.3561,1.3563,0,1.3797,1.38,1.3802,1.3959,1.396,1.3961,1.3962,1.4198,1.4203,1.4208,0,0,0,0,0,0,0,0,0,0,0,0,0,1.3243,1.3248,1.3561,1.3564,1.3567,1.3797,1.38,1.3803,1.3959,1.396,1.3962,1.3963,1.4196,1.4202,1.4209,0,0,0,0,0,0,0,0,0,0,0,0,0,1.342,1.3249,1.356,1.3672,1.3685,1.3796,1.38,1.3804,1.3959,1.396,1.3962,1.3963,1.4194,1.4202,1.421,1.4226,0,0,1.4234,1.4237,0,0,0,0,0,0,0,0,1.3409,1.3431,1.3653,1.3665,1.3679,1.3851,1.3774,1.3945,1.3958,1.3854,1.3962,1.3964,1.4081,1.4098,1.4139,1.4237,1.4247,1.4235,1.4239,1.4243,1.4245,0,0,0,0,0,0,0,1.3397,1.3422,1.3654,1.3656,1.3672,1.371,1.3737,1.3807,1.3955,1.3864,1.3876,1.3902,1.4088,1.4131,1.4145,1.4251,1.4234,1.4241,1.4246,1.4249,1.438,1.4378,0,0,0,0,0,0,1.3367,1.3411,1.3647,1.3661,1.3546,1.3714,1.3745,1.3794,1.3955,1.3981,1.39,1.3908,1.4116,1.4136,1.4154,1.4188,1.4243,1.425,1.4255,1.4381,1.4379,1.4378,0,0,0,0,0,0,1.336,1.3387,1.3637,1.3539,1.3574,1.3718,1.3772,1.3797,1.384,1.3983,1.401,1.3917,1.4118,1.4143,1.4209,1.4198,1.4254,1.4261,1.4382,1.438,1.4379,1.4253,0,0,0,0,0,0,1.335,1.3383,1.3392,1.3538,1.3579,1.3688,1.3771,1.3801,1.3854,1.3867,1.4005,1.403,1.4121,1.4196,1.4217,1.421,1.4267,1.4384,1.4382,1.4379,1.4259,1.4247,1.4237,0,0,0,0,0,1.3338,1.3344,1.3391,1.3419,1.3592,1.3687,1.371,1.3817,1.3853,1.3862,1.3955,1.4025,1.4195,1.4201,1.4226,1.4221,1.4385,1.4382,1.438,1.4263,1.4249,1.4237,0,0,0,0,0,0,1.319,1.3366,1.3419,1.3473,1.3565,1.3714,1.3729,1.3798,1.3879,1.3888,1.4015,1.4045,1.4099,1.4166,1.417,1.4248,1.4299,1.4301,1.4202,1.419,1.4179,1.4163,1.4274,0,0,0,0,0,1.3164,1.3227,1.3377,1.341,1.3454,1.3583,1.3628,1.3703,1.3802,1.3841,1.3938,1.4029,1.4104,1.415,1.4227,1.4269,1.4302,1.4278,1.4267,1.4257,1.4258,1.4289,1.4281,1.4369,1.4369,1.4369,0,0,1.3109,1.3214,1.3245,1.3383,1.3463,1.3526,1.3614,1.3676,1.3724,1.3849,1.392,1.3993,1.4104,1.4159,1.4188,1.4217,1.4241,1.4253,1.4245,1.4251,1.4285,1.4276,1.4269,1.4367,1.4367,1.4367,0,0,1.3044,1.3128,1.3168,1.3246,1.3367,1.3454,1.3462,1.3602,1.3658,1.373,1.3826,1.3884,1.4009,1.4086,1.4141,1.4108,1.4178,1.4129,1.4073,1.4101,1.4095,1.4089,1.408,1.4075,1.4129,1.4129,1.4128,0,1.2962,1.3062,1.3178,1.3237,1.3295,1.3414,1.3456,1.3525,1.3663,1.3701,1.3732,1.3895,1.3977,1.4054,1.4046,1.4086,1.4101,1.4115,1.4086,1.4082,1.4079,1.4072,1.4068,1.4122,1.4123,1.4124,1.4124,0,1.2956,1.3024,1.3041,1.3176,1.3236,1.3284,1.3408,1.3455,1.3525,1.3608,1.3682,1.3785,1.3887,1.391,1.3977,1.3997,1.4012,1.4062,1.4117,1.4062,1.4058,1.4056,1.4113,1.4115,1.4117,1.4119,0,0,1.2803,1.3004,1.3008,1.3073,1.3216,1.327,1.3325,1.3427,1.3466,1.3557,1.3608,1.3712,1.3762,1.3824,1.3901,1.3926,1.3898,1.3975,1.3979,1.3959,1.3929,1.3892,1.3887,1.3944,1.3944,1.3944,1.3921,0,1.2762,1.287,1.2977,1.3046,1.3112,1.3227,1.3275,1.3368,1.3447,1.3514,1.3601,1.3675,1.3733,1.3772,1.3802,1.3895,1.3894,1.3897,1.3993,1.3995,1.3964,1.3885,1.3845,1.3819,1.392,1.392,1.392,0,1.2728,1.2819,1.2895,1.3036,1.3067,1.3109,1.3213,1.3275,1.3383,1.3439,1.3511,1.3594,1.3657,1.3703,1.3794,1.3794,1.3839,1.389,1.3892,1.3907,1.3955,1.39,1.3812,1.3809,1.3917,1.3918,1.3918,0,1.2613,1.2753,1.2819,1.2869,1.3034,1.3061,1.313,1.324,1.3296,1.3386,1.3424,1.3518,1.357,1.3642,1.3748,1.3771,1.3829,1.3882,1.3878,1.3875,1.3886,1.3885,1.3808,1.391,1.391,1.391,1.391,0,1.2558,1.26,1.277,1.281,1.2862,1.2985,1.3033,1.3112,1.3209,1.3267,1.337,1.3422,1.3558,1.3626,1.3709,1.3774,1.3795,1.3843,1.3865,1.3836,1.383,1.3868,1.3874,1.3909,1.391,1.391,1.391,0,1.2439,1.2554,1.2633,1.2784,1.2822,1.2854,1.2983,1.3027,1.3113,1.3185,1.3208,1.3343,1.3429,1.3542,1.3661,1.3718,1.3772,1.3805,1.3737,1.375,1.3741,1.3742,1.3688,1.3689,1.3787,1.3786,1.3785,0,1.2397,1.2434,1.2589,1.2637,1.2704,1.2778,1.2837,1.2959,1.3016,1.3144,1.3172,1.3266,1.3348,1.3479,1.3587,1.368,1.3717,1.3692,1.3732,1.3702,1.3721,1.3719,1.3724,1.3683,1.3681,1.368,1.3679,0,1.2312,1.2368,1.2449,1.2552,1.2619,1.2705,1.2795,1.2827,1.2968,1.3027,1.3117,1.3181,1.3306,1.3399,1.3506,1.3577,1.3652,1.3665,1.367,1.3641,1.3602,1.3627,1.3713,1.3666,1.3668,1.3668,1.3669,1.367,1.2233,1.2273,1.239,1.2478,1.2559,1.2642,1.2692,1.2785,1.2864,1.2977,1.3044,1.3132,1.3242,1.3395,1.3462,1.3533,1.3562,1.3567,1.357,1.357,1.3562,1.3588,1.3553,1.3553,1.3554,1.3554,1.3554,0,1.2156,1.2238,1.2318,1.2443,1.2513,1.2579,1.2683,1.2737,1.2814,1.2911,1.2991,1.3096,1.3188,1.3303,1.3403,1.3437,1.3474,1.3459,1.3459,1.3475,1.3529,1.3516,1.3428,1.3428,1.3428,1.3428,1.3428,1.3428,1.2125,1.2197,1.2266,1.238,1.2461,1.2551,1.2606,1.2683,1.2761,1.2875,1.2953,1.3029,1.3134,1.3242,1.3329,1.3361,1.3394,1.3369,1.3411,1.3459,1.3471,1.3481,1.3471,1.3374,1.3374,1.3353,1.3352,1.3352]}]]